Weather History for Detroit Metro, MI

Change the Weather History Date:

Wednesday, April 9, 2014

  Actual Average Record
Temperature  
Mean Temperature 47 °F 47 °F  
Max Temperature 58 °F 57 °F 78 °F (1931)
Min Temperature 36 °F 37 °F 19 °F (1985)
Degree Days  
Heating Degree Days 18 18  
Month to date heating degree days 181 178  
Since 1 July heating degree days 6550 5593  
Cooling Degree Days 0 0  
Month to date cooling degree days 0 0  
Year to date cooling degree days 0 0  
Moisture  
Dew Point 28 °F    
Average Humidity 47    
Maximum Humidity 70    
Minimum Humidity 24    
Precipitation  
Precipitation 0.00 in 0.10 in 1.40 in (1998)
Month to date precipitation 0.90 0.84  
Year to date precipitation 8.13 7.10  
Snow  
Snow 0.00 in 0.10 in 2.80 in (1961)
Month to date snowfall T 0.9  
Since 1 July snowfall 91.7 41.7  
Snow Depth 0.00 in    
Sea Level Pressure  
Sea Level Pressure 29.95 in    
Wind  
Wind Speed 8 mph (West)    
Max Wind Speed 17 mph    
Max Gust Speed 21 mph    
Visibility 10 miles    
Events      
T = Trace of Precipitation, MM = Missing Value Source: NWS Daily Summary

Daily Weather History Graph

Daily Weather History Graph

Search for Another Location

Airport:

Trip Planner

Search our weather history database for the weather conditions in past years. The results will help you decide how hot, cold, wet, or windy it might be!

Date:

Astronomy

Apr. 09, 2014 Rise Set
Actual Time 7:02 AM EDT 8:08 PM EDT
Civil Twilight 6:33 AM EDT 8:36 PM EDT
Nautical Twilight 5:59 AM EDT 9:11 PM EDT
Astronomical Twilight 5:23 AM EDT 9:47 PM EDT
Moon 2:49 PM EDT (4/9) 3:56 AM EDT (4/9)
Length of Visible Light 14h 03m
Length of Day
13h 05m
Waxing Gibbous, 71% of the Moon is Illuminated
Apr 9
Waxing Gibbous
Apr 15
Full
Apr 22
Last Quarter
Apr 29
New
May 6
First Quarter

Hourly Weather History & Observations

Time (EDT) Temp. Windchill Dew Point Humidity Pressure Visibility Wind Dir Wind Speed Gust Speed Precip Events Conditions
12:53 AM 46.9 °F - 36.0 °F 66% 29.83 in 10.0 mi North 3.5 mph - N/A   Mostly Cloudy
1:53 AM 46.0 °F 44.8 °F 36.0 °F 68% 29.84 in 10.0 mi NNW 3.5 mph - N/A   Mostly Cloudy
2:53 AM 45.0 °F 40.1 °F 34.0 °F 65% 29.85 in 10.0 mi NNW 9.2 mph - N/A   Mostly Cloudy
3:53 AM 44.1 °F 39.0 °F 32.0 °F 63% 29.86 in 10.0 mi NW 9.2 mph - N/A   Mostly Cloudy
4:53 AM 42.1 °F 36.6 °F 32.0 °F 67% 29.88 in 10.0 mi NW 9.2 mph - N/A   Mostly Cloudy
5:53 AM 39.9 °F 33.9 °F 28.0 °F 63% 29.91 in 10.0 mi NW 9.2 mph - N/A   Mostly Cloudy
6:53 AM 37.0 °F 32.4 °F 26.1 °F 65% 29.94 in 10.0 mi NW 5.8 mph - N/A   Scattered Clouds
7:53 AM 37.9 °F 31.5 °F 25.0 °F 60% 29.96 in 10.0 mi NW 9.2 mph - N/A   Partly Cloudy
8:53 AM 42.1 °F 39.2 °F 25.0 °F 51% 29.98 in 10.0 mi NNW 4.6 mph - N/A   Partly Cloudy
9:53 AM 44.1 °F 40.1 °F 26.1 °F 49% 30.00 in 10.0 mi NW 6.9 mph - N/A   Partly Cloudy
10:53 AM 48.0 °F - 27.0 °F 44% 30.01 in 10.0 mi West 8.1 mph - N/A   Clear
11:53 AM 48.9 °F - 24.1 °F 38% 30.02 in 10.0 mi NNW 8.1 mph - N/A   Clear
12:53 PM 53.1 °F - 24.1 °F 32% 30.02 in 10.0 mi WNW 6.9 mph - N/A   Partly Cloudy
1:53 PM 53.1 °F - 21.9 °F 30% 30.01 in 10.0 mi West 4.6 mph - N/A   Partly Cloudy
2:53 PM 55.0 °F - 19.9 °F 25% 30.00 in 10.0 mi SW 6.9 mph 18.4 mph N/A   Scattered Clouds
3:53 PM 55.9 °F - 19.0 °F 24% 29.98 in 10.0 mi SW 5.8 mph - N/A   Scattered Clouds
4:53 PM 55.9 °F - 19.9 °F 25% 29.97 in 10.0 mi West 11.5 mph - N/A   Mostly Cloudy
5:53 PM 57.9 °F - 23.0 °F 26% 29.97 in 10.0 mi SW 9.2 mph 18.4 mph N/A   Scattered Clouds
6:53 PM 57.0 °F - 24.1 °F 28% 29.96 in 10.0 mi SSW 16.1 mph - N/A   Scattered Clouds
7:53 PM 48.9 °F - 28.9 °F 46% 29.97 in 10.0 mi SSE 9.2 mph - N/A   Scattered Clouds
8:53 PM 46.0 °F 41.9 °F 30.0 °F 54% 29.96 in 10.0 mi SSE 8.1 mph - N/A   Scattered Clouds
9:53 PM 45.0 °F 41.2 °F 32.0 °F 60% 29.96 in 10.0 mi SE 6.9 mph - N/A   Scattered Clouds
10:53 PM 45.0 °F 40.1 °F 34.0 °F 65% 29.94 in 10.0 mi SSE 9.2 mph - N/A   Scattered Clouds
11:53 PM 43.0 °F 40.3 °F 33.1 °F 68% 29.94 in 10.0 mi South 4.6 mph - N/A   Scattered Clouds